Indiana, PA

9:04 AM EST on November 19, 2019 (GMT -0500)
Indiana County-Stewart

Weather History for KIDI - October, 2019

Change the Weather History Date:

Sunday, October 20, 2019

  Actual Average Record
Temperature  
Mean Temperature 56 °F -  
Max Temperature 66 °F 59 °F 80 °F (1963)
Min Temperature 46 °F 36 °F 20 °F (1972)
Degree Days  
Heating Degree Days 9    
Growing Degree Days 6 (Base 50)    
Moisture  
Dew Point 47 °F    
Average Humidity 76    
Maximum Humidity 100    
Minimum Humidity 56    
Precipitation  
Precipitation 0.00 in - - ()
Sea Level Pressure  
Sea Level Pressure 29.96 in    
Wind  
Wind Speed 2 mph ()    
Max Wind Speed 8 mph    
Max Gust Speed -    
Visibility 10.0 miles    
Events      
Averages and records for this station are not official NWS values.
T = Trace of Precipitation, MM = Missing Value Source: Averaged Metar Reports

Daily Weather History Graph

Daily Weather History Graph

Search for Another Location

Airport or City:

Astronomy

Oct. 20, 2019 Rise Set
Actual Time 7:32 AM EDT 6:29 PM EDT
Civil Twilight 7:04 AM EDT 6:56 PM EDT
Nautical Twilight 6:33 AM EDT 7:28 PM EDT
Astronomical Twilight 6:01 AM EDT 8:00 PM EDT
Moon 11:35 PM EDT (10/20) 2:00 PM EDT (10/20)
Length of Visible Light 11h 51m
Length of Day
10h 56m
Waning Gibbous, 59% of the Moon is Illuminated
Oct 20
Waning Gibbous
Oct 21
Last Quarter
Oct 27
New
Nov 4
First Quarter
Nov 12
Full

Hourly Weather History & Observations

Time (EDT) Temp. Dew Point Humidity Pressure Visibility Wind Dir Wind Speed Gust Speed Precip Events Conditions
12:15 AM 53.6 °F 42.8 °F 67% 29.95 in 10.0 mi South 6.9 mph - N/A   Clear
12:35 AM 53.6 °F 42.8 °F 67% 29.95 in 10.0 mi South 5.8 mph - N/A   Clear
12:55 AM 53.6 °F 42.8 °F 67% 29.95 in 10.0 mi Calm Calm - N/A   Clear
1:15 AM 53.6 °F 42.8 °F 67% 29.94 in 10.0 mi SSE 4.6 mph - N/A   Clear
1:35 AM 53.6 °F 42.8 °F 67% 29.95 in 10.0 mi South 4.6 mph - N/A   Clear
1:55 AM 51.8 °F 42.8 °F 71% 29.94 in 10.0 mi Calm Calm - N/A   Partly Cloudy
2:15 AM 51.8 °F 42.8 °F 71% 29.93 in 10.0 mi Calm Calm - N/A   Mostly Cloudy
2:35 AM 51.8 °F 44.6 °F 76% 29.93 in 10.0 mi Calm Calm - N/A   Overcast
2:55 AM 51.8 °F 44.6 °F 76% 29.93 in 10.0 mi ESE 5.8 mph - N/A   Overcast
3:15 AM 53.6 °F 44.6 °F 72% 29.92 in 10.0 mi ESE 3.5 mph - N/A   Mostly Cloudy
3:35 AM 53.6 °F 44.6 °F 72% 29.91 in 9.0 mi Calm Calm - N/A   Mostly Cloudy
3:55 AM 51.8 °F 46.4 °F 82% 29.91 in 10.0 mi East 3.5 mph - N/A   Overcast
4:15 AM 51.8 °F 46.4 °F 82% 29.91 in 10.0 mi Calm Calm - N/A   Overcast
4:35 AM 51.8 °F 46.4 °F 82% 29.92 in 10.0 mi Calm Calm - N/A   Overcast
4:55 AM 50.0 °F 48.2 °F 94% 29.91 in 10.0 mi ENE 3.5 mph - N/A   Mostly Cloudy
5:15 AM 50.0 °F 48.2 °F 94% 29.92 in 10.0 mi Calm Calm - N/A   Overcast
5:35 AM 51.8 °F 48.2 °F 88% 29.92 in 10.0 mi East 5.8 mph - N/A   Overcast
5:55 AM 51.8 °F 46.4 °F 82% 29.93 in 10.0 mi Calm Calm - N/A   Overcast
6:15 AM 51.8 °F 46.4 °F 82% 29.93 in 10.0 mi Calm Calm - N/A   Overcast
6:35 AM 51.8 °F 46.4 °F 82% 29.93 in 10.0 mi Calm Calm - N/A   Overcast
6:55 AM 51.8 °F 48.2 °F 88% 29.93 in 10.0 mi Calm Calm - N/A   Overcast
7:15 AM 50.0 °F 46.4 °F 87% 29.93 in 10.0 mi Calm Calm - N/A   Overcast
7:35 AM 51.8 °F 46.4 °F 82% 29.94 in 10.0 mi Calm Calm - N/A   Overcast
7:55 AM 50.0 °F 46.4 °F 87% 29.93 in 10.0 mi Calm Calm - N/A   Overcast
8:15 AM 51.8 °F 46.4 °F 82% 29.94 in 10.0 mi Calm Calm - N/A   Overcast
8:35 AM 51.8 °F 46.4 °F 82% 29.94 in 10.0 mi Calm Calm - N/A   Overcast
8:55 AM 51.8 °F 46.4 °F 82% 29.96 in 10.0 mi Calm Calm - N/A   Overcast
9:15 AM 53.6 °F 48.2 °F 82% 29.96 in 10.0 mi Calm Calm - N/A   Overcast
9:35 AM 53.6 °F 48.2 °F 82% 29.96 in 10.0 mi Calm Calm - N/A   Overcast
9:55 AM 53.6 °F 48.2 °F 82% 29.97 in 10.0 mi ESE 3.5 mph - N/A   Overcast
10:15 AM 55.4 °F 46.4 °F 72% 29.98 in 10.0 mi ESE 4.6 mph - N/A   Overcast
10:35 AM 55.4 °F 46.4 °F 72% 29.97 in 10.0 mi ESE 5.8 mph - N/A   Mostly Cloudy
10:55 AM 55.4 °F 46.4 °F 72% 29.97 in 10.0 mi ESE 6.9 mph - N/A   Scattered Clouds
11:15 AM 57.2 °F 48.2 °F 72% 29.97 in 10.0 mi Calm Calm - N/A   Mostly Cloudy
11:35 AM 57.2 °F 46.4 °F 67% 29.97 in 10.0 mi Calm Calm - N/A   Overcast
11:55 AM 59.0 °F 48.2 °F 67% 29.97 in 10.0 mi SSE 6.9 mph - N/A   Mostly Cloudy
12:15 PM 60.8 °F 48.2 °F 63% 29.97 in 10.0 mi Variable 3.5 mph - N/A   Scattered Clouds
12:35 PM 60.8 °F 48.2 °F 63% 29.96 in 10.0 mi SE 8.1 mph - N/A   Scattered Clouds
12:55 PM 62.6 °F 48.2 °F 59% 29.96 in 10.0 mi Variable 6.9 mph - N/A   Mostly Cloudy
1:15 PM 62.6 °F 48.2 °F 59% 29.95 in 10.0 mi Variable 4.6 mph - N/A   Mostly Cloudy
1:35 PM 64.4 °F 48.2 °F 56% 29.95 in 10.0 mi Variable 4.6 mph - N/A   Scattered Clouds
1:55 PM 64.4 °F 50.0 °F 59% 29.95 in 10.0 mi SSW 5.8 mph - N/A   Partly Cloudy
2:15 PM 64.4 °F 50.0 °F 59% 29.94 in 10.0 mi Calm Calm - N/A   Scattered Clouds
2:35 PM 64.4 °F 48.2 °F 56% 29.94 in 10.0 mi South 3.5 mph - N/A   Mostly Cloudy
2:55 PM 64.4 °F 48.2 °F 56% 29.94 in 10.0 mi Calm Calm - N/A   Partly Cloudy
3:15 PM 64.4 °F 50.0 °F 59% 29.94 in 10.0 mi Variable 3.5 mph - N/A   Clear
3:35 PM 64.4 °F 50.0 °F 59% 29.94 in 10.0 mi ESE 5.8 mph - N/A   Partly Cloudy
3:55 PM 64.4 °F 50.0 °F 59% 29.95 in 10.0 mi Calm Calm - N/A   Partly Cloudy
4:15 PM 64.4 °F 50.0 °F 59% 29.95 in 10.0 mi East 3.5 mph - N/A   Clear
4:35 PM 66.2 °F 50.0 °F 56% 29.95 in 10.0 mi Calm Calm - N/A   Clear
4:55 PM 64.4 °F 50.0 °F 59% 29.95 in 10.0 mi Calm Calm - N/A   Clear
5:15 PM 66.2 °F 50.0 °F 56% 29.95 in 10.0 mi Calm Calm - N/A   Clear
5:35 PM 64.4 °F 50.0 °F 59% 29.96 in 10.0 mi Calm Calm - N/A   Clear
5:55 PM 64.4 °F 50.0 °F 59% 29.96 in 10.0 mi Calm Calm - N/A   Clear
6:15 PM 62.6 °F 50.0 °F 63% 29.97 in 10.0 mi ESE 5.8 mph - N/A   Clear
6:35 PM 60.8 °F 50.0 °F 68% 29.97 in 10.0 mi Calm Calm - N/A   Clear
6:55 PM 57.2 °F 50.0 °F 77% 29.98 in 10.0 mi East 3.5 mph - N/A   Clear
7:15 PM 55.4 °F 50.0 °F 82% 29.99 in 10.0 mi East 4.6 mph - N/A   Clear
7:35 PM 53.6 °F 50.0 °F 88% 29.99 in 10.0 mi East 5.8 mph - N/A   Clear
7:55 PM 53.6 °F 50.0 °F 88% 29.99 in 10.0 mi East 4.6 mph - N/A   Clear
8:15 PM 53.6 °F 50.0 °F 88% 30.00 in 10.0 mi ESE 4.6 mph - N/A   Clear
8:35 PM 53.6 °F 50.0 °F 88% 30.00 in 10.0 mi East 5.8 mph - N/A   Clear
8:55 PM 53.6 °F 50.0 °F 88% 30.01 in 10.0 mi East 4.6 mph - N/A   Clear
9:15 PM 51.8 °F 50.0 °F 94% 30.01 in 10.0 mi East 3.5 mph - N/A   Clear
9:35 PM 51.8 °F 48.2 °F 88% 30.01 in 10.0 mi Calm Calm - N/A   Clear
9:55 PM 50.0 °F 48.2 °F 94% 30.03 in 10.0 mi Calm Calm - N/A   Clear
10:15 PM 50.0 °F 48.2 °F 94% 30.03 in 10.0 mi Calm Calm - N/A   Clear
10:35 PM 48.2 °F 46.4 °F 93% 30.04 in 10.0 mi Calm Calm - N/A   Clear
10:55 PM 46.4 °F 46.4 °F 100% 30.04 in 10.0 mi Calm Calm - N/A   Clear
11:15 PM 46.4 °F 46.4 °F 100% 30.05 in 10.0 mi Calm Calm - N/A   Clear
11:35 PM 46.4 °F 46.4 °F 100% 30.04 in 10.0 mi Calm Calm - N/A   Clear
11:55 PM 46.4 °F 44.6 °F 93% 30.05 in 10.0 mi Calm Calm - N/A   Clear